GW3040 Weather Reports


Display with metric or nautical units.
time (UTC)temp
F
wind
direction
speed
MPH
gust
MPH
rain 1hr
in
rain 24hr
in
rain mn
in
humidity
%
barometer
mb
20260510204605 86 323 2.0 5.0 0.00 0.40 0.00 72 1015.4
20260510203058 86 348 0.0 5.0 0.00 0.40 0.00 71 1015.6
20260510201558 87 0 0.0 5.0 0.00 0.40 0.00 71 1015.6
20260510200055 89 9 0.0 2.0 0.00 0.40 0.00 67 1015.5
20260510194600 88 198 1.0 3.0 0.00 0.40 0.00 68 1015.2
20260510193057 87 158 0.0 5.0 0.00 0.40 0.00 71 1015.2
20260510191601 89 319 1.0 3.0 0.00 0.40 0.00 67 1015.4
20260510190103 89 140 1.0 5.0 0.00 0.40 0.00 64 1015.3
20260510184557 90 194 0.0 3.0 0.00 0.40 0.00 63 1015.3
20260510183056 91 160 0.0 5.0 0.00 0.40 0.00 59 1015.4
20260510181601 92 152 1.0 4.0 0.00 0.40 0.00 57 1015.5
20260510180107 94 202 0.0 4.0 0.00 0.40 0.00 55 1015.7
20260510174558 93 205 1.0 5.0 0.00 0.40 0.00 59 1015.8
20260510173056 92 153 3.0 8.0 0.00 0.40 0.00 58 1016.1
20260510171601 92 167 3.0 8.0 0.00 0.40 0.00 58 1016.3
20260510170122 92 208 1.0 6.0 0.00 0.40 0.00 59 1016.4
20260510164604 90 131 2.0 6.0 0.00 0.40 0.00 62 1016.6
20260510163056 88 193 1.0 5.0 0.00 0.40 0.00 66 1016.8
20260510161555 87 158 1.0 5.0 0.00 0.40 0.00 68 1016.8
20260510160054 87 0 2.0 7.0 0.00 0.40 0.00 70 1016.8
20260510154558 87 201 0.0 7.0 0.00 0.40 0.00 74 1016.8
20260510153056 85 143 2.0 4.0 0.00 0.40 0.00 74 1016.9
20260510151558 85 166 0.0 2.0 0.00 0.40 0.00 76 1016.7
20260510150058 83 188 0.0 7.0 0.00 0.40 0.00 80 1016.6
20260510144555 83 136 1.0 7.0 0.00 0.40 0.00 82 1016.6
20260510143055 81 219 2.0 5.0 0.00 0.40 0.00 86 1016.7
20260510141553 80 0 0.0 3.0 0.00 0.40 0.00 94 1016.7
20260510140054 78 195 0.0 2.0 0.00 0.40 0.00 98 1016.7
20260510134556 77 0 0.0 2.0 0.00 0.40 0.00 99 1016.5
20260510133055 76 0 0.0 1.0 0.00 0.40 0.00 99 1016.4
20260510131556 76 144 0.0 1.0 0.00 0.40 0.00 99 1016.3
20260510130054 75 0 0.0 1.0 0.00 0.40 0.00 99 1016.2
20260510124612 75 0 0.0 0.0 0.00 0.40 0.00 99 1016.0
20260510123102 75 0 0.0 1.0 0.00 0.40 0.00 99 1015.9
20260510121555 74 0 0.0 0.0 0.00 0.40 0.00 99 1015.8
20260510120057 74 0 0.0 2.0 0.00 0.40 0.00 99 1015.5
20260510114601 73 0 0.0 1.0 0.00 0.40 0.00 99 1015.4
20260510113053 72 0 0.0 0.0 0.00 0.40 0.00 99 1014.9
20260510111558 71 0 0.0 1.0 0.00 0.40 0.00 99 1014.7
20260510110055 71 0 0.0 0.0 0.00 0.40 0.00 99 1014.7
20260510104559 71 0 0.0 0.0 0.00 0.40 0.00 99 1014.3
20260510103056 71 0 0.0 0.0 0.00 0.40 0.00 99 1014.1
20260510101557 72 0 0.0 0.0 0.00 0.40 0.00 99 1014.0
20260510100101 72 0 0.0 0.0 0.00 0.40 0.00 99 1013.8
20260510094556 72 0 0.0 0.0 0.00 0.40 0.00 99 1013.7
20260510093101 72 0 0.0 0.0 0.00 0.40 0.00 99 1013.7
20260510091553 72 0 0.0 0.0 0.00 0.40 0.00 99 1013.6
20260510090054 71 0 0.0 0.0 0.00 0.40 0.00 99 1013.4
20260510084556 71 0 0.0 0.0 0.00 0.40 0.00 99 1013.3
20260510083105 71 0 0.0 0.0 0.00 0.40 0.00 99 1013.5
20260510081553 71 0 0.0 0.0 0.00 0.40 0.00 99 1013.5
20260510080058 71 0 0.0 0.0 0.00 0.40 0.00 99 1013.5
20260510074556 71 0 0.0 0.0 0.00 0.40 0.00 99 1013.7
20260510073105 70 0 0.0 0.0 0.00 0.40 0.00 99 1013.8
20260510071556 70 0 0.0 0.0 0.00 0.40 0.00 99 1013.8
20260510070054 70 0 0.0 0.0 0.00 0.40 0.00 99 1014.0
20260510064558 70 0 0.0 0.0 0.00 0.40 0.00 99 1014.0
20260510063057 70 0 0.0 0.0 0.00 0.40 0.00 98 1014.1
20260510061555 70 0 0.0 0.0 0.00 0.40 0.00 99 1014.2
20260510060055 70 0 0.0 0.0 0.00 0.40 0.00 98 1014.3
20260510054554 70 0 0.0 0.0 0.00 0.40 0.00 98 1014.5
20260510053053 71 0 0.0 0.0 0.00 0.40 0.00 98 1014.7
20260510051556 71 0 0.0 0.0 0.00 0.40 0.00 98 1015.0
20260510050057 71 0 0.0 0.0 0.00 0.40 0.00 98 1015.3
20260510044557 70 0 0.0 0.0 0.00 0.40 0.00 98 1015.3
20260510043110 71 0 0.0 0.0 0.00 0.40 0.00 98 1015.5
20260510041600 71 0 0.0 0.0 0.00 0.40 0.00 98 1015.2
20260510040101 71 0 0.0 0.0 0.00 0.40 0.00 98 1015.3
20260510034559 71 0 0.0 0.0 0.00 0.40 0.40 98 1015.2
20260510033122 72 0 0.0 0.0 0.00 0.40 0.40 98 1015.1
20260510031554 72 0 0.0 0.0 0.00 0.40 0.40 98 1015.0
20260510030054 72 0 0.0 0.0 0.00 0.40 0.40 98 1015.1
20260510024601 72 0 0.0 0.0 0.00 0.40 0.40 98 1015.0
20260510023056 72 0 0.0 0.0 0.00 0.40 0.40 98 1015.0
20260510021555 73 0 0.0 0.0 0.00 0.40 0.40 98 1015.0
20260510020057 73 0 0.0 0.0 0.00 0.40 0.40 98 1014.9
20260510014556 73 0 0.0 0.0 0.00 0.44 0.40 98 1014.8
20260510013055 73 0 0.0 0.0 0.00 0.44 0.40 98 1014.7
20260510011556 73 0 0.0 0.0 0.00 0.44 0.40 98 1014.7
20260510010055 73 0 0.0 0.0 0.00 0.44 0.40 98 1014.3
20260510004556 73 0 0.0 1.0 0.00 0.70 0.40 98 1014.2
20260510003105 73 0 0.0 1.0 0.00 0.70 0.40 98 1013.8
20260510001557 73 0 0.0 0.0 0.00 0.70 0.40 98 1013.9
20260510000057 73 0 0.0 1.0 0.00 0.70 0.40 97 1013.7
20260509234612 74 0 0.0 3.0 0.00 0.70 0.40 97 1013.5
20260509233057 74 0 0.0 3.0 0.00 0.70 0.40 97 1013.3
20260509231602 74 349 1.0 4.0 0.00 0.70 0.40 97 1013.1
20260509230103 74 23 0.0 3.0 0.00 0.70 0.40 97 1013.1
20260509224601 75 28 0.0 3.0 0.00 0.70 0.40 97 1012.9
20260509223104 75 356 1.0 6.0 0.00 0.70 0.40 97 1012.8
20260509221600 75 7 0.0 4.0 0.00 0.70 0.40 97 1012.7
20260509220057 76 316 2.0 5.0 0.01 0.70 0.40 96 1012.5
20260509214555 77 1 0.0 4.0 0.32 0.70 0.40 97 1012.2
20260509213058 76 15 0.0 2.0 0.40 0.70 0.40 96 1012.2
20260509211553 75 342 1.0 4.0 0.40 0.70 0.40 96 1012.4
20260509210059 76 338 1.0 6.0 0.39 0.69 0.39 93 1012.2